HST,Max TemperatureF,Mean TemperatureF,Min TemperatureF,Max Dew PointF,MeanDew PointF,Min DewpointF,Max Humidity, Mean Humidity, Min Humidity, Max Sea Level PressureIn, Mean Sea Level PressureIn, Min Sea Level PressureIn, Max VisibilityMiles, Mean VisibilityMiles, Min VisibilityMiles, Max Wind SpeedMPH, Mean Wind SpeedMPH, Max Gust SpeedMPH,PrecipitationIn, CloudCover, Events, WindDirDegrees
2012-12-1,36,34,32,28,26,18,87,72,48,30.35,30.13,30.00,10,6,1,33,22,50,0.00,6,Rain-Snow,276
2012-12-2,36,32,28,31,27,21,93,81,72,30.29,30.00,29.93,10,4,1,32,24,52,0.03,8,Rain-Snow,284
2012-12-3,28,26,24,21,19,17,77,73,69,30.28,30.13,29.90,10,9,5,33,25,48,0.00,6,Snow,289
2012-12-4,26,24,21,19,17,16,85,77,72,30.25,30.09,29.83,10,8,4,25,17,39,0.00,8,Snow,296
2012-12-5,19,20,17,18,15,10,93,78,66,30.19,29.90,29.81,10,4,0,24,13,41,0.00,8,Fog-Snow,293
2012-12-6,24,22,19,20,17,12,88,80,68,30.27,30.06,29.92,10,5,0,18,11,28,0.00,8,Fog-Snow,309
2012-12-7,28,22,17,27,19,14,96,86,74,30.21,29.74,29.16,10,8,1,16,10,24,0.00,8,Snow,309
2012-12-8,43,36,28,39,37,27,100,90,76,29.40,28.79,28.49,10,6,2,28,15,48,1.51,8,Rain-Snow,128
2012-12-9,42,38,33,37,32,26,93,79,65,29.91,29.39,28.75,10,9,5,25,16,43,0.05,7,Rain,156
2012-12-10,37,35,33,33,27,21,92,72,55,30.50,30.12,29.69,10,6,1,24,13,36,0.03,7,Rain-Snow,232
2012-12-11,57,47,37,43,40,35,93,82,53,30.30,29.94,29.58,10,6,2,38,26,61,0.18,7,Rain,150
2012-12-12,44,42,39,39,32,24,89,66,45,30.05,29.98,29.75,10,10,7,22,14,34,0.01,1,Rain,190
2012-12-13,42,38,34,35,31,25,92,79,60,30.01,29.80,29.40,10,10,10,9,4,16,0.00,6,,221
2012-12-14,37,34,28,31,26,21,89,75,65,29.99,29.62,29.41,10,6,2,31,15,45,0.02,7,Rain-Snow,252
2012-12-15,33,28,23,27,19,13,86,71,56,30.14,29.96,29.75,10,8,1,25,11,38,0.00,5,Snow,271
2012-12-16,37,32,28,27,23,19,78,64,54,30.29,30.18,29.89,10,10,8,21,10,32,0.03,2,Rain-Snow,213
2012-12-17,43,38,33,37,33,26,93,86,70,30.08,29.41,28.95,10,7,2,44,16,62,0.82,8,Rain-Snow,194
2012-12-18,32,28,24,27,20,12,86,70,53,30.61,30.12,29.45,10,5,0,37,26,63,0.00,8,Fog-Snow,280
2012-12-19,28,27,26,21,19,16,80,72,61,30.81,30.61,30.33,10,8,2,23,17,38,0.00,7,Snow,292
2012-12-20,35,27,19,32,24,16,89,81,72,30.76,30.44,30.01,10,10,10,20,7,29,0.00,7,,157
2012-12-21,37,35,33,34,31,28,89,83,75,30.28,30.08,29.87,10,8,2,20,14,30,0.00,7,Rain-Snow,147
2012-12-22,36,31,26,32,29,18,93,84,69,30.22,29.85,29.67,10,3,0,39,16,55,0.22,8,Fog-Rain-Snow,274
2012-12-23,26,22,19,18,15,10,81,76,63,29.96,29.63,29.44,10,4,0,34,23,53,0.00,8,Snow,285
2012-12-24,32,26,19,29,18,12,89,77,53,29.71,29.50,29.27,10,7,2,17,8,29,0.00,7,Snow,223
2012-12-25,34,34,32,36,33,28,100,90,82,29.55,29.27,28.80,10,8,2,24,12,34,0.05,8,Rain-Snow,79
2012-12-26,33,36,32,35,31,25,97,85,67,29.09,28.80,28.62,10,3,0,44,15,55,0.27,8,Fog-Rain-Snow,284
2012-12-27,39,34,30,36,27,23,93,78,61,29.40,29.16,28.89,10,7,1,46,19,55,0.11,6,Rain-Snow,192
2012-12-28,41,38,35,36,33,30,93,86,65,29.32,28.91,28.55,10,6,2,30,18,50,0.59,7,Rain-Snow,236
2012-12-29,39,36,33,34,32,29,93,85,67,29.34,29.08,28.72,10,8,2,30,11,50,0.04,6,Rain-Snow,229
2012-12-30,37,34,30,31,30,28,93,84,70,29.32,28.90,28.65,10,6,2,24,15,40,0.09,8,Rain-Snow,255
2012-12-31,36,30,23,30,28,20,93,81,70,29.42,29.18,28.99,10,7,2,34,13,48,0.00,5,Rain-Snow,245